QPF
0.00 0.00 0.00 0.00 0.00 0.00 0.00 0.00 0.00 0.00 0.00 0.00 0.00 0.00 0.00 0.00 0.00 0.00 0.00 0.00 0.00 0.00 0.00 0.00 0.00 0.00 0.00 0.00 0.00 0.00 0.00 0.00 0.00 0.00 0.00 0.00 0.00 0.01 0.01 0.01 0.02 0.02 0.00
0.00 0.00 0.00 0.00 0.00 0.00 0.00 0.00 0.00 0.00 0.00 0.00 0.00 0.00 0.00 0.00 0.00 0.00 0.00 0.00 0.00 0.00 0.00 0.00 0.00 0.00 0.00 0.00 0.00 0.00 0.00 0.00 0.00 0.00 0.01 0.02 0.00 0.00 0.00 0.02 0.06 0.02 0.00
0.00 0.00 0.00 0.00 0.00 0.00 0.00 0.00 0.00 0.00 0.00 0.00 0.00 0.00 0.00 0.00 0.00 0.00 0.00 0.00 0.00 0.00 0.00 0.00 0.00 0.00 0.00 0.00 0.00 0.00 0.00 0.00 0.00 0.00 0.01 0.08 0.03 0.01 0.00 0.00 0.02 0.00 0.00
0.00 0.00 0.00 0.00 0.01 0.02 0.00 0.01 0.00 0.00 0.00 0.00 0.00 0.00 0.00 0.00 0.00 0.00 0.00 0.00 0.00 0.00 0.00 0.00 0.00 0.00 0.00 0.00 0.00 0.00 0.00 0.00 0.00 0.00 0.01 0.02 0.01 0.03 0.09 0.04 0.00 0.00 0.00
0.00 0.00 0.00 0.00 0.00 0.00 0.00 0.01 0.00 0.00 0.00 0.00 0.00 0.00 0.00 0.00 0.00 0.00 0.00 0.00 0.00 0.00 0.00 0.00 0.00 0.00 0.00 0.00 0.00 0.00 0.00 0.00 0.00 0.00 0.00 0.00 0.00 0.04 0.04 0.02 0.01 0.00 0.01
0.00 0.00 0.00 0.00 0.00 0.00 0.00 0.00 0.00 0.00 0.00 0.00 0.00 0.00 0.00 0.00 0.00 0.00 0.00 0.00 0.00 0.00 0.00 0.00 0.00 0.00 0.00 0.00 0.00 0.00 0.00 0.00 0.00 0.00 0.00 0.00 0.01 0.04 0.00 0.00 0.01 0.00 0.01
0.00 0.00 0.00 0.00 0.00 0.00 0.00 0.00 0.00 0.00 0.00 0.00 0.00 0.00 0.00 0.00 0.00 0.00 0.00 0.00 0.00 0.00 0.00 0.00 0.00 0.00 0.00 0.01 0.00 0.00 0.00 0.00 0.00 0.00 0.00 0.00 0.02 0.01 0.01 0.05 0.04 0.03 0.01
0.00 0.00 0.00 0.00 0.00 0.00 0.00 0.00 0.00 0.00 0.00 0.00 0.00 0.00 0.00 0.00 0.00 0.00 0.00 0.00 0.00 0.00 0.00 0.00 0.00 0.01 0.10 0.15 0.05 0.04 0.04 0.02 0.00 0.00 0.00 0.00 0.00 0.00 0.00 0.03 0.12 0.11 0.02
0.00 0.00 0.00 0.00 0.00 0.00 0.00 0.00 0.00 0.00 0.00 0.00 0.00 0.00 0.00 0.00 0.00 0.00 0.00 0.00 0.00 0.00 0.00 0.00 0.00 0.02 0.03 0.04 0.01 0.04 0.06 0.02 0.00 0.00 0.00 0.00 0.00 0.00 0.00 0.00 0.08 0.02 0.01
0.00 0.00 0.00 0.00 0.00 0.00 0.00 0.00 0.00 0.00 0.00 0.00 0.00 0.00 0.00 0.00 0.00 0.00 0.00 0.00 0.00 0.00 0.01 0.01 0.00 0.00 0.02 0.00 0.00 0.00 0.00 0.00 0.00 0.00 0.00 0.00 0.00 0.00 0.00 0.00 0.03 0.04 0.03
0.00 0.00 0.00 0.00 0.00 0.00 0.00 0.00 0.00 0.00 0.00 0.00 0.00 0.00 0.00 0.00 0.00 0.00 0.00 0.00 0.00 0.00 0.03 0.02 0.00 0.01 0.03 0.00 0.02 0.00 0.00 0.00 0.00 0.00 0.00 0.00 0.00 0.00 0.00 0.00 0.00 0.01 0.03
0.00 0.00 0.00 0.00 0.00 0.00 0.00 0.00 0.00 0.00 0.00 0.00 0.00 0.00 0.00 0.00 0.00 0.00 0.00 0.00 0.00 0.00 0.02 0.02 0.00 0.02 0.09 0.04 0.05 0.02 0.00 0.00 0.01 0.00 0.00 0.00 0.00 0.00 0.00 0.00 0.00 0.01 0.02
0.00 0.00 0.00 0.00 0.00 0.00 0.00 0.00 0.00 0.00 0.00 0.00 0.00 0.00 0.00 0.00 0.00 0.00 0.00 0.00 0.00 0.00 0.00 0.01 0.00 0.01 0.03 0.03 0.01 0.00 0.00 0.00 0.01 0.00 0.00 0.00 0.00 0.00 0.00 0.00 0.00 0.01 0.02
0.00 0.00 0.00 0.00 0.00 0.00 0.00 0.00 0.00 0.00 0.00 0.00 0.00 0.00 0.00 0.00 0.00 0.00 0.00 0.00 0.00 0.00 0.00 0.00 0.00 0.00 0.00 0.01 0.00 0.00 0.00 0.00 0.00 0.00 0.00 0.00 0.00 0.00 0.00 0.00 0.02 0.00 0.00
0.00 0.00 0.00 0.00 0.00 0.00 0.00 0.00 0.00 0.00 0.00 0.00 0.00 0.00 0.00 0.00 0.00 0.00 0.00 0.00 0.00 0.00 0.00 0.00 0.00 0.00 0.00 0.01 0.01 0.00 0.00 0.00 0.00 0.00 0.00 0.00 0.00 0.00 0.00 0.00 0.01 0.00 0.00
0.00 0.00 0.00 0.00 0.00 0.00 0.00 0.00 0.00 0.00 0.00 0.00 0.00 0.00 0.00 0.00 0.00 0.00 0.00 0.00 0.00 0.00 0.00 0.00 0.00 0.00 0.00 0.00 0.00 0.00 0.00 0.00 0.01 0.00 0.00 0.00 0.00 0.00 0.00 0.00 0.00 0.00 0.00
0.00 0.00 0.00 0.00 0.00 0.00 0.00 0.00 0.00 0.00 0.00 0.00 0.00 0.00 0.00 0.00 0.00 0.00 0.00 0.00 0.00 0.00 0.00 0.00 0.00 0.00 0.00 0.00 0.00 0.00 0.00 0.00 0.00 0.00 0.00 0.00 0.00 0.01 0.00 0.00 0.00 0.00 0.00
0.00 0.00 0.00 0.00 0.00 0.00 0.00 0.00 0.00 0.00 0.00 0.00 0.00 0.00 0.00 0.00 0.00 0.00 0.00 0.00 0.00 0.00 0.00 0.00 0.00 0.00 0.00 0.00 0.00 0.00 0.00 0.00 0.00 0.00 0.00 0.00 0.00 0.01 0.02 0.01 0.00 0.00 0.00
0.00 0.00 0.00 0.00 0.00 0.00 0.00 0.00 0.00 0.00 0.00 0.00 0.00 0.00 0.00 0.00 0.00 0.00 0.00 0.00 0.00 0.00 0.00 0.00 0.00 0.00 0.00 0.00 0.00 0.00 0.00 0.00 0.00 0.00 0.00 0.00 0.00 0.00 0.00 0.00 0.00 0.00 0.00
0.00 0.00 0.00 0.00 0.00 0.00 0.00 0.00 0.00 0.00 0.00 0.00 0.00 0.00 0.00 0.00 0.00 0.00 0.00 0.00 0.00 0.00 0.00 0.00 0.00 0.00 0.00 0.00 0.00 0.00 0.00 0.00 0.00 0.00 0.00 0.00 0.00 0.00 0.00 0.00 0.00 0.00 0.00
0.00 0.00 0.00 0.00 0.00 0.00 0.00 0.00 0.00 0.00 0.00 0.00 0.00 0.00 0.00 0.00 0.00 0.00 0.00 0.00 0.00 0.00 0.00 0.00 0.00 0.00 0.00 0.00 0.00 0.00 0.00 0.00 0.00 0.00 0.00 0.00 0.00 0.00 0.00 0.00 0.00 0.00 0.00
0.00 0.00 0.00 0.00 0.00 0.00 0.00 0.00 0.00 0.00 0.00 0.00 0.00 0.00 0.00 0.00 0.00 0.00 0.00 0.00 0.00 0.00 0.00 0.00 0.00 0.00 0.00 0.00 0.00 0.00 0.01 0.00 0.03 0.01 0.00 0.00 0.00 0.00 0.00 0.00 0.00 0.00 0.00
0.00 0.00 0.00 0.00 0.00 0.00 0.00 0.00 0.00 0.00 0.00 0.00 0.00 0.00 0.00 0.00 0.00 0.00 0.00 0.00 0.00 0.00 0.00 0.00 0.00 0.00 0.00 0.00 0.00 0.00 0.01 0.01 0.00 0.00 0.00 0.00 0.00 0.00 0.00 0.00 0.00 0.00 0.00
0.00 0.00 0.00 0.00 0.00 0.00 0.00 0.00 0.00 0.00 0.00 0.00 0.00 0.00 0.00 0.00 0.00 0.00 0.00 0.00 0.00 0.00 0.00 0.00 0.00 0.00 0.00 0.00 0.00 0.00 0.00 0.00 0.05 0.02 0.00 0.00 0.00 0.00 0.00 0.00 0.00 0.00 0.00
0.00 0.00 0.00 0.00 0.00 0.00 0.00 0.00 0.00 0.00 0.00 0.00 0.00 0.00 0.00 0.00 0.00 0.00 0.00 0.00 0.00 0.00 0.00 0.00 0.00 0.00 0.01 0.01 0.00 0.00 0.01 0.00 0.06 0.05 0.01 0.00 0.00 0.00 0.00 0.00 0.00 0.00 0.00
0.00 0.00 0.00 0.00 0.00 0.00 0.00 0.00 0.00 0.00 0.00 0.00 0.00 0.00 0.00 0.00 0.00 0.00 0.00 0.00 0.00 0.00 0.00 0.00 0.00 0.00 0.00 0.01 0.01 0.00 0.04 0.05 0.01 0.03 0.01 0.00 0.00 0.00 0.00 0.00 0.00 0.00 0.00
MSLP
1009.78 1011.31 1012.45 1012.86 1013.15 1013.43 1013.79 1014.07 1014.38 1014.63 1014.90 1015.25 1015.49 1015.80 1016.05 1016.05 1016.12 1016.19 1016.39 1016.58 1016.67 1016.74 1016.85 1016.87 1016.93 1016.92 1016.83 1016.80 1016.80 1016.71 1016.65 1016.55 1016.53 1016.56 1016.51 1016.63 1016.81 1016.81 1016.75 1016.71 1016.75 1016.18 1017.04
1009.45 1011.18 1012.52 1012.96 1013.26 1013.54 1013.89 1014.22 1014.61 1014.88 1015.13 1015.41 1015.65 1015.97 1016.18 1016.18 1016.32 1016.47 1016.61 1016.69 1016.81 1016.91 1016.97 1017.01 1017.04 1017.02 1017.00 1016.99 1016.96 1016.93 1016.96 1016.84 1016.75 1016.74 1016.67 1016.78 1016.83 1016.96 1016.92 1017.00 1016.86 1016.70 1017.21
1009.34 1010.95 1012.30 1013.05 1013.33 1013.64 1013.99 1014.33 1014.74 1015.04 1015.33 1015.58 1015.83 1016.08 1016.28 1016.42 1016.57 1016.69 1016.75 1016.88 1017.02 1017.09 1017.14 1017.15 1017.15 1017.13 1017.15 1017.18 1017.19 1017.19 1017.17 1017.00 1016.90 1016.77 1016.62 1016.51 1016.44 1016.81 1016.99 1017.30 1017.25 1017.23 1017.33
1009.17 1010.66 1011.69 1013.11 1013.40 1013.75 1014.10 1014.43 1014.84 1015.17 1015.49 1015.73 1015.92 1016.13 1016.39 1016.55 1016.69 1016.89 1016.93 1017.09 1017.15 1017.21 1017.24 1017.19 1017.17 1017.21 1017.26 1017.36 1017.35 1017.36 1017.30 1017.15 1017.04 1016.77 1016.17 1015.69 1016.18 1016.80 1017.08 1017.25 1017.39 1017.41 1017.55
1009.17 1010.13 1011.79 1013.08 1013.48 1013.86 1014.17 1014.51 1014.88 1015.22 1015.60 1015.80 1016.01 1016.23 1016.47 1016.68 1016.84 1017.02 1017.09 1017.18 1017.21 1017.27 1017.23 1017.11 1017.09 1017.16 1017.19 1017.25 1017.33 1017.32 1017.24 1017.18 1017.09 1016.62 1015.81 1015.34 1015.79 1016.63 1016.90 1017.20 1017.39 1017.45 1017.48
1008.97 1009.66 1012.47 1013.10 1013.53 1013.97 1014.26 1014.59 1015.02 1015.38 1015.69 1015.91 1016.16 1016.37 1016.56 1016.78 1016.93 1017.03 1017.18 1017.23 1017.31 1017.29 1017.19 1017.11 1017.07 1017.03 1017.09 1017.04 1017.09 1017.05 1017.05 1017.11 1016.89 1015.54 1015.02 1015.51 1016.13 1016.67 1016.97 1017.17 1017.24 1017.33 1017.58
1008.59 1010.28 1012.23 1013.18 1013.67 1014.08 1014.44 1014.87 1015.23 1015.59 1015.86 1016.09 1016.30 1016.46 1016.69 1016.90 1017.02 1017.10 1017.17 1017.26 1017.34 1017.29 1017.25 1017.14 1017.01 1016.90 1016.81 1016.85 1016.76 1016.79 1016.85 1016.77 1016.41 1015.13 1014.56 1015.19 1016.13 1016.33 1016.75 1017.09 1017.26 1017.26 1017.45
1008.20 1010.39 1012.20 1013.39 1013.83 1014.22 1014.58 1015.02 1015.41 1015.76 1016.01 1016.24 1016.45 1016.63 1016.85 1016.97 1017.06 1017.10 1017.15 1017.22 1017.23 1017.19 1017.16 1016.93 1016.67 1016.46 1016.48 1016.54 1016.44 1016.41 1016.45 1016.45 1015.85 1015.14 1015.02 1014.26 1015.47 1015.80 1016.45 1016.88 1017.06 1017.25 1017.37
1007.98 1009.99 1011.91 1012.88 1013.76 1014.37 1014.79 1015.17 1015.56 1015.87 1016.15 1016.38 1016.57 1016.70 1016.85 1016.95 1017.00 1016.99 1017.03 1017.04 1017.08 1016.93 1016.65 1016.52 1016.33 1016.31 1016.32 1016.31 1016.18 1016.04 1016.04 1015.96 1015.67 1014.93 1014.55 1014.56 1015.33 1015.60 1015.98 1016.46 1016.79 1017.01 1017.19
1008.07 1009.66 1011.24 1012.17 1013.17 1013.79 1014.53 1015.23 1015.61 1015.93 1016.19 1016.41 1016.56 1016.65 1016.73 1016.79 1016.64 1016.59 1016.59 1016.60 1016.80 1016.61 1016.43 1016.36 1016.21 1015.97 1015.89 1015.81 1015.64 1015.54 1015.51 1015.48 1015.37 1014.74 1014.57 1014.36 1015.14 1015.52 1015.85 1016.14 1016.36 1016.59 1016.76
1008.26 1009.39 1010.61 1011.49 1012.47 1013.07 1013.53 1014.78 1015.58 1015.91 1016.16 1016.31 1016.37 1016.43 1016.50 1015.87 1014.78 1015.39 1015.45 1016.05 1016.48 1016.40 1016.29 1016.06 1015.74 1015.25 1015.13 1015.00 1014.80 1014.84 1015.07 1014.58 1014.42 1014.08 1014.07 1014.25 1014.66 1015.09 1015.49 1015.79 1016.07 1016.23 1016.35
1008.21 1008.95 1010.00 1010.89 1011.63 1012.39 1012.61 1013.90 1014.71 1014.95 1015.22 1015.28 1015.10 1015.22 1015.20 1014.50 1014.55 1015.03 1015.48 1015.84 1016.03 1016.01 1015.77 1015.59 1015.09 1014.43 1014.20 1014.42 1014.77 1014.47 1014.29 1013.15 1013.29 1013.17 1013.45 1014.19 1014.53 1014.87 1015.16 1015.39 1015.62 1015.85 1015.96
1008.24 1008.84 1009.52 1010.30 1011.17 1011.79 1012.09 1013.13 1013.75 1013.75 1014.07 1014.38 1014.77 1014.74 1014.33 1014.41 1014.53 1014.45 1014.25 1014.45 1014.89 1015.25 1014.83 1014.95 1014.75 1014.45 1014.38 1013.91 1013.78 1013.68 1013.39 1013.09 1012.92 1013.10 1013.63 1013.76 1014.24 1014.71 1015.05 1015.22 1015.31 1015.43 1015.59
1008.16 1008.78 1009.25 1010.01 1011.05 1011.26 1011.91 1012.60 1012.85 1012.94 1013.25 1013.45 1013.78 1014.57 1014.87 1014.70 1014.56 1014.51 1014.07 1013.94 1014.29 1014.18 1013.99 1014.29 1013.99 1013.82 1013.75 1013.25 1012.84 1013.19 1013.36 1012.94 1012.79 1012.53 1012.97 1013.31 1013.79 1014.25 1014.59 1014.79 1014.93 1015.09 1015.08
1008.03 1008.65 1009.30 1010.29 1011.38 1011.53 1012.27 1012.45 1012.43 1012.61 1012.95 1012.95 1013.38 1013.75 1014.25 1014.10 1014.15 1014.20 1014.06 1014.18 1013.95 1013.63 1013.23 1013.27 1013.56 1013.94 1013.48 1012.93 1013.04 1012.95 1013.09 1012.44 1012.05 1011.91 1012.52 1013.18 1013.42 1013.74 1014.13 1014.31 1014.47 1014.53 1014.69
1007.85 1008.51 1009.29 1010.40 1011.61 1011.94 1012.33 1012.63 1012.80 1012.56 1012.61 1012.99 1012.86 1013.21 1014.15 1014.17 1013.96 1013.87 1013.93 1013.85 1013.53 1013.27 1012.94 1012.96 1013.31 1013.65 1013.16 1012.69 1013.03 1012.95 1012.59 1012.23 1012.27 1012.34 1012.00 1012.55 1012.82 1013.23 1013.46 1013.90 1014.09 1014.20 1014.29
1007.61 1008.37 1009.01 1010.21 1011.35 1012.19 1012.47 1012.93 1012.96 1012.63 1012.52 1012.58 1012.84 1013.18 1013.69 1014.01 1014.05 1014.30 1013.84 1013.53 1013.09 1013.05 1013.43 1013.29 1013.16 1012.83 1012.58 1012.10 1012.15 1012.30 1012.03 1011.94 1011.33 1011.42 1011.59 1011.59 1012.18 1012.38 1012.74 1013.16 1013.61 1013.80 1013.87
1007.27 1008.20 1008.84 1009.79 1010.69 1011.89 1012.29 1012.63 1012.55 1012.51 1012.25 1012.17 1012.35 1012.56 1013.27 1013.79 1013.94 1013.86 1013.56 1013.12 1012.67 1012.81 1012.73 1012.59 1012.50 1012.45 1012.36 1012.13 1011.92 1011.50 1011.12 1011.03 1010.86 1010.77 1010.54 1010.66 1010.77 1011.91 1012.33 1012.41 1012.79 1013.19 1013.42
1007.11 1008.17 1008.87 1009.66 1010.17 1011.10 1011.91 1012.17 1012.29 1012.01 1012.27 1012.02 1012.07 1012.17 1012.61 1013.26 1013.45 1013.75 1013.17 1012.68 1012.85 1012.63 1012.39 1012.34 1012.23 1012.39 1012.37 1012.30 1011.79 1011.20 1011.12 1011.00 1010.66 1010.05 1010.33 1010.77 1011.05 1011.27 1011.21 1011.50 1012.13 1012.46 1012.75
1006.95 1008.07 1008.82 1009.37 1009.90 1010.66 1011.37 1011.91 1011.74 1011.76 1011.83 1011.86 1011.88 1011.83 1012.03 1012.54 1012.86 1013.03 1012.78 1012.69 1012.80 1012.54 1012.15 1012.03 1012.58 1012.62 1012.63 1012.17 1011.38 1010.97 1010.86 1010.32 1009.91 1010.04 1010.29 1010.15 1009.96 1010.67 1010.81 1010.95 1011.80 1011.92 1012.18
1006.65 1007.61 1008.49 1009.05 1009.75 1010.35 1010.78 1011.07 1011.19 1011.04 1011.19 1011.29 1011.33 1011.53 1011.83 1012.17 1012.24 1012.58 1012.61 1012.34 1012.34 1012.40 1012.31 1012.77 1012.73 1012.27 1011.94 1011.38 1011.28 1011.35 1010.21 1009.11 1008.95 1009.15 1009.65 1009.46 1009.41 1009.71 1009.95 1010.35 1010.69 1010.30 1011.02
1005.99 1007.04 1007.96 1008.60 1009.38 1010.05 1010.15 1010.32 1010.41 1010.53 1010.50 1010.66 1010.74 1010.86 1011.61 1011.86 1012.03 1012.07 1012.20 1012.05 1011.94 1011.84 1012.12 1012.52 1012.79 1012.46 1011.89 1011.52 1011.74 1011.74 1010.90 1009.13 1010.67 1009.55 1009.06 1009.13 1009.45 1009.49 1009.43 1009.68 1009.94 1010.08 1010.01
1005.13 1006.28 1007.24 1008.06 1008.77 1009.51 1009.55 1009.95 1010.15 1010.15 1010.24 1010.18 1010.30 1010.51 1010.79 1011.35 1011.61 1011.67 1011.73 1011.91 1011.95 1012.13 1011.91 1011.87 1012.01 1012.17 1011.85 1011.49 1011.33 1011.45 1011.04 1010.24 1009.84 1009.49 1008.80 1009.11 1008.89 1008.92 1008.80 1008.64 1008.87 1009.44 1009.85
1004.35 1005.59 1006.54 1007.48 1008.07 1008.89 1009.46 1009.17 1009.47 1009.68 1009.53 1009.53 1009.67 1009.78 1010.05 1010.46 1010.91 1011.12 1011.27 1011.49 1011.80 1011.89 1011.71 1011.71 1011.58 1011.79 1011.85 1011.32 1010.71 1010.31 1010.85 1010.61 1010.75 1010.02 1009.40 1008.75 1008.11 1008.41 1008.49 1008.36 1008.25 1008.24 1008.75
1003.59 1004.43 1005.61 1006.63 1007.48 1008.05 1008.79 1008.99 1009.05 1009.45 1009.07 1009.09 1009.02 1009.14 1009.64 1009.74 1010.10 1010.37 1010.53 1010.97 1011.29 1011.48 1011.47 1011.75 1011.74 1011.65 1011.42 1011.25 1010.88 1010.33 1010.09 1010.10 1010.06 1010.24 1009.09 1008.71 1007.59 1007.17 1007.24 1006.58 1007.11 1007.11 1007.28
1002.52 1003.41 1004.27 1005.49 1006.60 1007.54 1008.03 1008.75 1008.85 1008.73 1009.08 1008.66 1008.73 1008.72 1008.93 1008.95 1009.19 1009.75 1010.08 1010.43 1010.72 1010.91 1011.09 1011.25 1011.28 1011.37 1011.32 1011.02 1010.92 1010.64 1010.22 1009.97 1009.39 1008.93 1008.87 1007.95 1007.26 1006.91 1006.23 1005.84 1005.76 1006.01 1006.30
Thickness
5812 5802 5794 5791 5790 5788 5785 5783 5781 5779 5777 5775 5773 5770 5768 5769 5769 5769 5767 5765 5764 5763 5761 5760 5759 5759 5760 5760 5760 5761 5761 5762 5763 5761 5762 5761 5759 5758 5759 5760 5760 5765 5758
5820 5805 5795 5793 5791 5789 5786 5784 5781 5779 5777 5775 5773 5769 5767 5769 5768 5767 5765 5765 5764 5762 5761 5760 5759 5760 5760 5760 5760 5760 5759 5760 5761 5760 5760 5759 5758 5756 5757 5757 5758 5760 5757
5822 5809 5799 5794 5792 5790 5787 5785 5781 5779 5777 5775 5773 5770 5769 5768 5767 5766 5766 5765 5763 5762 5762 5761 5761 5761 5761 5759 5758 5758 5758 5760 5760 5760 5761 5761 5760 5757 5754 5753 5755 5756 5755
5825 5814 5806 5796 5793 5791 5788 5785 5782 5779 5777 5775 5775 5772 5770 5768 5767 5766 5766 5764 5764 5763 5762 5763 5763 5762 5760 5759 5758 5757 5758 5759 5760 5762 5765 5769 5763 5758 5753 5753 5752 5753 5752
5829 5821 5808 5798 5795 5792 5789 5787 5784 5781 5778 5776 5775 5774 5771 5770 5769 5767 5767 5766 5766 5765 5765 5765 5764 5763 5761 5760 5759 5759 5759 5759 5760 5763 5769 5771 5767 5761 5756 5754 5751 5751 5751
5833 5828 5806 5800 5796 5793 5790 5788 5784 5781 5779 5777 5776 5775 5773 5772 5771 5770 5768 5768 5767 5766 5767 5767 5765 5764 5763 5763 5762 5762 5762 5760 5762 5773 5776 5772 5767 5762 5757 5755 5753 5751 5749
5838 5825 5810 5802 5798 5795 5792 5788 5784 5781 5779 5778 5777 5776 5774 5773 5773 5772 5771 5770 5769 5768 5768 5768 5768 5767 5766 5766 5767 5766 5765 5764 5767 5777 5781 5775 5769 5766 5761 5756 5753 5750 5749
5844 5826 5812 5803 5800 5797 5794 5789 5785 5782 5780 5778 5778 5777 5775 5775 5775 5774 5773 5771 5771 5772 5770 5771 5771 5771 5770 5770 5770 5771 5770 5770 5773 5779 5780 5784 5775 5772 5765 5759 5756 5752 5750
5849 5830 5815 5808 5802 5797 5794 5790 5787 5784 5781 5780 5779 5779 5778 5778 5777 5778 5776 5775 5775 5775 5775 5774 5773 5774 5773 5774 5775 5775 5774 5774 5775 5780 5784 5783 5778 5774 5769 5764 5760 5756 5754
5848 5835 5822 5815 5807 5803 5797 5791 5788 5786 5784 5783 5783 5782 5782 5781 5782 5783 5782 5781 5778 5780 5777 5777 5777 5778 5779 5780 5781 5780 5778 5776 5777 5783 5785 5785 5779 5774 5771 5768 5765 5761 5759
5844 5837 5829 5822 5814 5809 5805 5796 5790 5788 5786 5786 5786 5786 5785 5789 5798 5793 5792 5787 5782 5783 5782 5783 5784 5788 5790 5790 5791 5788 5783 5785 5789 5792 5790 5786 5780 5778 5775 5771 5768 5766 5764
5838 5838 5835 5828 5823 5816 5814 5805 5798 5797 5796 5796 5797 5797 5797 5802 5801 5797 5793 5790 5787 5786 5787 5787 5790 5794 5783 5797 5795 5793 5792 5800 5787 5802 5795 5786 5781 5780 5778 5775 5773 5770 5767
5842 5841 5839 5835 5827 5823 5821 5813 5809 5809 5807 5805 5802 5802 5805 5804 5803 5803 5804 5801 5797 5793 5794 5794 5794 5796 5798 5800 5800 5799 5800 5803 5804 5801 5793 5790 5786 5782 5779 5777 5773 5772 5770
5843 5841 5843 5839 5830 5829 5824 5819 5817 5817 5815 5814 5811 5805 5803 5804 5805 5805 5807 5807 5802 5802 5802 5798 5800 5800 5800 5806 5810 5803 5801 5805 5807 5806 5801 5796 5791 5787 5783 5779 5775 5772 5771
5843 5844 5843 5838 5829 5829 5823 5822 5823 5822 5819 5819 5815 5813 5809 5811 5810 5808 5808 5806 5806 5808 5809 5808 5806 5801 5804 5811 5813 5808 5805 5809 5811 5814 5806 5799 5796 5792 5787 5783 5778 5774 5772
5849 5846 5845 5837 5828 5826 5824 5822 5821 5823 5823 5820 5822 5819 5812 5812 5813 5812 5811 5810 5811 5812 5814 5813 5809 5806 5809 5812 5809 5808 5810 5812 5815 5815 5811 5805 5801 5796 5792 5786 5782 5778 5775
5852 5850 5847 5840 5833 5826 5824 5821 5821 5824 5825 5825 5823 5820 5816 5813 5813 5810 5813 5815 5817 5816 5812 5812 5812 5814 5816 5819 5817 5815 5816 5816 5819 5817 5814 5812 5807 5803 5797 5792 5786 5783 5779
5857 5850 5850 5845 5839 5829 5826 5825 5825 5825 5828 5830 5828 5826 5821 5816 5815 5815 5817 5819 5821 5819 5819 5820 5820 5817 5817 5818 5818 5822 5825 5824 5825 5824 5824 5820 5817 5806 5801 5798 5793 5788 5785
5859 5851 5847 5845 5842 5837 5831 5830 5829 5831 5829 5832 5832 5831 5827 5821 5819 5816 5821 5824 5821 5823 5824 5824 5823 5820 5815 5815 5818 5824 5824 5824 5827 5831 5827 5820 5815 5810 5809 5806 5799 5794 5790
5860 5854 5849 5847 5845 5841 5837 5834 5836 5836 5836 5836 5836 5836 5835 5829 5826 5823 5824 5825 5822 5825 5827 5827 5819 5819 5815 5817 5821 5822 5824 5829 5833 5829 5826 5826 5825 5816 5812 5809 5800 5796 5793
5862 5855 5851 5848 5847 5844 5840 5837 5837 5837 5840 5842 5843 5841 5838 5834 5833 5829 5829 5830 5829 5826 5825 5820 5818 5819 5819 5825 5819 5814 5826 5837 5838 5835 5830 5829 5827 5822 5817 5812 5807 5809 5801
5865 5861 5856 5853 5850 5847 5848 5847 5847 5847 5849 5849 5849 5847 5840 5837 5835 5834 5832 5832 5832 5831 5826 5821 5817 5815 5819 5823 5810 5805 5797 5824 5815 5830 5832 5829 5823 5822 5820 5815 5811 5808 5806
5873 5868 5863 5860 5856 5853 5855 5853 5851 5852 5851 5849 5849 5849 5847 5841 5838 5837 5835 5833 5832 5828 5826 5826 5823 5817 5812 5820 5821 5809 5797 5799 5812 5820 5826 5823 5823 5821 5821 5822 5817 5810 5806
5882 5879 5873 5867 5864 5859 5857 5858 5853 5848 5847 5853 5853 5855 5853 5849 5844 5841 5839 5836 5832 5829 5827 5825 5826 5821 5816 5811 5822 5825 5817 5812 5793 5795 5813 5820 5825 5820 5818 5818 5818 5818 5812
5891 5887 5882 5875 5870 5868 5862 5861 5858 5851 5857 5858 5859 5857 5854 5854 5850 5846 5842 5838 5834 5831 5829 5824 5821 5818 5819 5814 5813 5815 5816 5814 5809 5796 5796 5803 5821 5824 5823 5827 5824 5822 5818
5899 5894 5890 5881 5873 5870 5867 5861 5859 5858 5854 5856 5856 5855 5854 5856 5854 5848 5844 5840 5836 5832 5828 5824 5822 5817 5815 5814 5810 5808 5804 5797 5800 5799 5792 5803 5806 5814 5825 5829 5826 5823 5820